Theta_e
311 310 309 307 308 310 311 314 319 318 317 317 318 318 317 316 317 315 317 319 320 320 322 320 320 320 338 350 348 347 341 339 343 351 347 345 351 350 349 350 348 349 350 349
309 309 309 309 309 310 311 312 314 317 318 317 318 317 319 315 315 317 316 319 320 320 320 320 320 323 332 344 349 346 341 343 346 347 336 346 351 349 348 348 349 349 347 348
310 309 309 309 310 311 311 313 314 317 318 319 318 318 317 318 318 319 319 319 320 321 321 321 320 323 335 347 348 346 345 343 345 342 341 350 347 347 347 345 347 347 347 345
312 310 310 309 311 310 311 312 314 316 319 319 319 321 316 318 317 316 317 317 320 320 320 320 319 324 334 345 349 348 344 337 338 342 346 346 347 347 345 347 344 346 345 343
313 312 309 311 312 310 310 310 313 314 318 318 320 319 319 317 318 318 314 317 318 320 320 320 319 325 336 343 345 342 342 337 341 342 349 344 344 343 342 344 344 342 341 338
313 312 312 312 312 312 310 310 311 315 316 322 321 318 317 317 319 318 316 318 319 319 320 320 320 338 350 346 346 347 343 342 337 339 335 336 343 339 337 344 343 342 341 340
315 314 313 312 313 313 313 311 319 321 322 327 321 324 317 318 319 317 316 318 320 320 320 320 331 347 347 346 346 345 343 342 346 347 347 346 345 343 343 341 340 340 339 341
316 318 315 312 313 312 312 315 321 328 328 323 323 325 323 317 319 319 320 321 321 320 320 324 332 346 345 344 344 337 342 346 346 345 344 344 343 342 340 339 338 339 339 336
317 319 315 311 312 312 314 314 314 320 319 323 323 323 322 318 317 317 317 319 320 319 331 335 348 347 344 345 340 335 342 345 344 344 343 342 341 340 335 339 339 338 336 331
315 319 315 311 313 313 311 313 316 318 327 328 324 324 322 319 318 318 315 317 333 342 347 347 347 345 344 342 335 334 342 343 342 340 341 340 339 336 337 338 337 334 332 322
315 316 313 312 315 315 316 318 318 317 322 326 325 323 331 328 318 316 329 336 340 340 341 342 343 343 342 343 343 343 343 341 339 339 340 337 336 335 335 334 331 327 320 316
313 318 316 312 313 315 314 316 317 320 322 325 323 331 328 328 325 335 336 337 337 338 338 338 340 342 342 341 340 340 337 336 335 334 333 332 330 329 329 325 320 317 314 313
314 318 314 316 316 316 317 316 317 321 321 326 327 333 329 331 336 335 334 334 333 333 334 334 335 334 336 335 334 332 333 332 330 330 329 322 321 318 316 315 313 312 311 311
314 316 317 315 319 317 318 317 318 323 323 326 331 334 333 335 337 335 334 333 331 329 328 328 329 330 330 329 329 329 328 328 324 321 319 317 314 312 311 311 311 311 312 313
316 317 316 317 318 319 317 317 321 322 324 326 331 333 331 330 332 332 330 328 327 325 324 323 322 323 324 324 324 323 322 321 319 316 313 312 312 312 311 311 312 314 314 314
315 318 317 318 320 318 319 319 320 322 323 322 330 333 328 328 327 327 326 324 321 318 317 318 320 321 321 320 319 319 318 315 314 313 313 313 312 312 313 313 314 313 311 311
314 318 319 315 319 320 320 322 320 322 324 326 331 330 327 326 324 322 320 318 316 315 315 316 317 317 317 316 316 315 314 313 313 313 313 312 312 312 313 314 312 311 311 311
316 317 318 318 316 314 321 316 321 320 324 326 326 326 324 321 319 317 315 314 313 313 313 314 314 314 314 314 313 313 312 312 312 312 312 311 312 312 312 311 311 311 311 311
316 319 320 316 319 322 320 314 316 320 329 326 324 323 318 315 314 313 313 313 313 313 313 312 313 312 312 312 312 311 311 311 311 310 310 310 310 310 309 309 310 310 310 310
310 314 321 317 320 322 315 309 308 312 328 324 321 318 316 319 315 312 310 311 312 312 312 312 312 311 311 311 311 311 310 309 309 309 309 308 308 308 308 308 309 309 309 309
307 307 313 320 320 316 307 305 307 324 325 322 319 318 317 315 312 309 309 310 311 311 311 312 312 311 310 310 310 310 308 308 308 308 307 308 308 307 307 307 308 308 308 308
304 306 306 309 317 318 304 308 321 319 321 319 314 311 309 309 308 309 310 310 311 311 311 312 311 310 310 310 309 308 308 307 307 307 307 307 308 307 307 307 307 307 308 307
305 302 304 304 305 302 301 302 306 316 314 311 310 308 308 306 306 307 307 308 308 309 310 310 310 308 307 306 306 306 305 305 305 305 305 305 305 305 306 306 306 306 306 305
299 299 303 306 302 300 303 310 311 310 309 308 307 307 307 306 306 306 306 306 307 307 307 307 307 306 304 303 303 304 303 303 303 303 303 303 304 305 305 305 305 305 304 304
298 298 300 301 300 302 303 307 306 306 307 306 305 305 305 305 304 304 304 304 304 304 303 303 302 301 300 300 302 302 302 301 301 301 301 302 303 303 303 304 304 303 303 302
297 298 299 299 297 299 299 305 307 307 305 305 305 304 304 304 304 305 304 303 302 301 300 299 299 298 297 295 296 297 298 299 300 301 299 299 300 301 302 302 302 301 300 299
Wind_Speed
6 3 10 16 12 13 16 16 17 10 12 11 23 13 11 9 8 10 18 18 26 29 30 24 17 16 20 31 32 36 38 29 35 34 33 26 23 25 22 20 17 23 19 15
3 15 14 13 14 15 16 20 20 15 15 13 17 10 16 9 7 13 21 22 28 28 26 27 19 19 25 29 31 29 36 39 44 44 30 29 30 23 23 19 19 23 18 15
13 13 10 16 16 18 19 16 13 13 16 19 7 15 9 15 16 20 24 30 34 35 28 28 23 22 27 34 34 32 31 39 43 40 39 30 28 28 24 22 21 21 19 17
9 17 20 17 17 17 16 12 13 17 12 10 16 11 9 16 16 12 19 28 39 37 33 30 28 24 31 33 34 33 36 37 39 35 35 35 35 31 26 24 22 21 16 16
8 4 12 17 16 16 13 13 17 15 16 10 12 9 15 10 11 20 13 28 39 39 38 33 26 24 31 32 32 26 30 36 33 38 37 31 30 30 22 28 26 16 10 10
19 17 10 8 9 12 11 14 17 15 12 11 15 7 7 9 21 16 9 27 35 39 40 35 26 29 37 34 31 27 26 34 32 29 31 36 32 32 41 31 18 20 20 14
7 21 16 15 3 8 6 12 3 5 6 5 6 1 8 17 19 11 11 25 33 40 39 31 31 38 39 36 31 31 25 27 22 19 23 24 21 23 28 20 20 18 16 13
4 3 14 17 9 7 10 7 2 4 5 4 4 6 7 12 15 23 27 27 32 35 37 32 34 40 35 34 28 26 30 26 27 23 21 22 18 21 15 14 16 15 10 7
4 5 7 13 11 6 6 8 4 4 3 4 7 5 5 6 8 10 16 27 31 26 34 38 40 42 36 35 29 28 29 24 20 20 16 14 20 20 14 17 16 13 10 7
3 7 3 12 11 9 6 13 4 3 3 3 5 4 4 9 10 13 10 13 27 39 37 42 45 42 37 32 27 23 19 19 17 15 17 16 20 21 20 20 14 12 9 7
8 3 4 9 5 8 4 4 3 3 3 3 5 5 6 8 9 11 12 25 37 38 41 44 43 39 37 30 25 24 21 17 20 21 17 16 20 20 20 17 13 10 7 5
4 3 3 5 2 10 5 8 9 4 4 3 2 2 11 9 18 22 23 33 39 44 49 49 49 45 42 38 32 25 23 23 21 20 21 22 22 20 19 17 13 9 7 4
3 1 3 4 6 5 2 10 5 4 3 2 2 1 9 7 17 30 33 39 42 45 50 47 47 45 42 38 35 31 26 22 21 20 19 21 21 19 17 14 11 8 4 2
6 1 2 2 3 5 7 12 5 6 3 5 3 10 9 11 17 18 35 38 43 42 46 48 45 41 38 35 32 28 24 19 20 20 20 19 17 15 13 11 8 5 2 1
3 2 4 5 11 10 12 15 7 7 8 1 3 9 5 6 12 21 37 42 44 42 43 42 42 43 38 34 31 27 25 22 19 19 17 16 14 12 10 8 7 4 1 2
1 2 1 2 2 7 16 12 3 5 11 7 4 6 2 10 26 28 34 39 40 39 42 45 46 43 40 37 33 29 25 22 18 18 16 14 12 10 8 7 5 2 3 4
3 1 1 1 1 7 7 4 8 5 2 9 12 5 5 16 17 24 32 37 38 39 41 46 47 43 38 33 28 27 24 20 17 15 12 10 8 8 7 4 2 4 6 6
2 4 1 1 4 6 3 10 5 6 7 10 17 15 11 22 31 31 32 44 40 40 44 44 41 38 32 28 25 24 21 19 17 14 10 8 7 6 5 3 7 7 4 5
2 2 2 4 4 6 4 8 6 4 4 16 22 17 29 35 42 28 28 44 47 45 41 39 35 32 28 25 22 21 18 14 12 10 8 5 4 4 5 9 9 7 4 4
14 8 0 3 4 3 3 10 8 10 4 12 25 24 22 31 14 7 21 44 46 41 36 34 31 28 25 22 16 16 15 12 11 8 6 5 6 8 9 8 7 4 3 4
6 5 5 3 4 3 4 19 13 4 4 14 30 26 22 14 18 31 32 39 39 36 32 28 26 25 22 17 12 13 12 10 8 5 4 6 7 8 8 7 7 4 2 2
5 5 4 5 3 3 18 17 2 1 19 25 29 32 40 40 36 39 38 37 34 32 28 24 24 21 16 12 10 12 10 9 6 4 4 6 7 6 6 4 5 3 6 3
4 3 3 4 2 11 23 24 16 22 29 31 41 34 50 38 37 36 35 33 31 31 28 23 22 19 14 11 10 10 8 5 4 5 6 6 5 5 5 5 5 4 4 4
7 7 3 2 8 15 26 27 30 38 34 33 34 36 37 44 38 36 33 30 29 26 24 19 17 15 14 10 8 7 6 2 1 2 6 6 6 6 6 5 5 4 6 8
4 10 7 2 7 13 32 23 35 40 40 39 36 34 32 41 36 37 33 30 27 24 20 16 16 14 13 9 7 5 2 1 2 3 6 7 7 6 5 5 3 3 5 6
8 4 4 3 11 4 13 19 27 34 34 35 37 36 34 36 36 32 32 27 25 23 21 19 17 16 15 14 13 7 2 1 2 6 7 7 7 7 5 3 1 2 3 7
Wind_Direction
195 187 229 246 227 234 245 263 258 265 219 210 238 235 233 224 195 209 203 205 192 190 183 191 202 199 188 180 185 198 204 218 195 187 185 197 202 199 200 208 212 205 199 197
340 249 246 245 240 243 261 247 258 291 241 216 232 241 212 216 210 210 213 201 211 207 177 198 214 202 193 192 188 196 200 188 194 202 221 201 200 194 208 206 204 206 219 212
216 232 251 225 233 238 242 249 249 256 283 236 220 238 216 216 204 216 228 218 203 210 206 213 219 210 188 189 187 192 194 191 200 211 207 199 211 205 205 203 203 213 213 217
239 244 242 234 237 213 241 249 272 247 268 248 209 224 218 199 207 200 208 214 207 202 197 211 218 212 191 192 192 189 187 193 204 211 211 205 218 219 214 206 213 214 208 217
223 307 218 224 225 212 231 248 262 292 250 269 220 198 224 185 198 211 203 209 217 208 206 208 211 211 190 189 186 187 197 193 212 216 212 209 209 210 222 223 206 208 227 261
250 257 270 259 211 221 192 227 258 259 273 229 240 172 205 182 202 205 192 207 215 209 208 205 204 187 178 172 177 179 189 198 225 225 214 211 197 238 212 216 207 213 210 212
253 236 235 225 177 215 189 177 219 191 217 216 240 338 225 207 211 175 172 196 210 212 205 193 179 176 175 172 176 185 193 196 202 214 217 219 196 198 206 190 207 213 209 197
284 289 209 200 195 167 184 131 231 164 156 176 178 210 238 212 197 182 190 195 202 202 199 184 179 175 170 170 177 169 177 190 200 199 203 195 183 200 180 192 195 199 187 174
300 270 232 182 167 166 147 150 191 301 229 97 161 286 308 193 158 155 179 182 193 162 168 170 165 156 158 162 169 180 183 187 190 201 196 184 158 167 154 206 180 172 164 174
241 290 222 161 160 190 161 147 154 226 205 116 160 189 221 182 176 175 150 139 117 131 133 144 154 157 162 166 166 168 172 181 182 185 178 187 179 187 189 195 178 159 159 167
270 252 111 135 173 155 135 106 127 265 222 153 132 221 350 282 168 151 117 120 122 124 125 131 137 145 148 151 156 156 160 162 147 149 164 158 152 156 163 162 157 165 163 159
302 336 254 185 62 155 165 160 148 154 278 341 172 295 332 311 135 125 125 121 119 120 121 124 131 136 135 137 139 138 133 127 131 131 130 138 141 146 153 157 159 168 177 185
350 330 344 76 19 344 208 156 157 206 84 235 104 156 340 53 118 124 124 119 117 116 113 117 123 128 131 131 128 128 129 127 132 138 142 137 140 143 141 146 158 162 173 128
216 252 238 201 111 183 167 163 260 139 121 313 26 124 62 85 116 118 114 113 113 111 113 116 120 126 128 127 127 126 126 137 134 135 136 135 134 135 139 139 136 137 123 44
178 267 232 223 219 255 152 158 260 129 139 57 123 111 71 72 98 114 112 110 108 108 108 113 117 124 126 124 123 123 120 124 129 128 127 122 125 131 125 124 125 116 89 3
335 257 320 31 134 109 123 155 178 89 97 248 155 86 341 92 106 104 106 108 105 105 107 114 120 125 125 124 123 119 113 116 125 118 111 116 120 115 112 109 104 92 88 68
217 281 4 308 313 89 76 6 152 64 154 183 152 135 114 102 96 103 106 102 103 104 107 112 118 121 122 122 123 116 117 123 120 121 119 112 117 124 128 124 97 90 87 63
249 175 72 150 54 62 63 357 87 119 256 99 98 98 95 99 97 95 103 107 103 105 110 115 118 117 119 122 121 119 124 127 133 133 133 135 141 141 133 124 116 102 85 67
147 358 106 104 73 126 41 18 12 24 77 128 115 105 111 104 85 70 99 109 113 116 117 118 119 119 122 121 123 125 127 132 139 140 141 141 151 144 131 120 107 103 92 44
5 6 44 88 82 102 62 322 319 282 38 135 127 130 137 128 103 107 104 115 118 120 121 120 120 118 119 120 131 130 126 136 134 138 143 133 115 111 106 107 104 103 104 18
345 358 22 30 100 42 359 316 302 133 166 136 131 137 127 109 115 125 117 113 119 122 123 125 124 123 119 131 145 132 131 124 125 118 112 122 129 104 110 112 129 130 125 48
12 333 11 341 62 95 347 330 140 239 122 125 109 110 107 113 118 121 125 123 126 127 126 126 133 128 130 137 152 144 144 137 154 162 159 147 143 128 123 137 157 154 178 199
30 16 351 18 355 290 292 253 279 119 113 119 118 123 125 118 114 120 122 124 125 124 124 131 133 131 129 137 148 154 145 175 197 209 200 158 138 133 138 156 175 181 219 269
339 6 28 262 332 340 9 70 95 100 104 110 117 122 123 121 122 123 124 125 118 119 122 129 130 129 129 136 145 150 158 170 163 140 143 140 154 170 181 190 207 235 259 273
325 322 326 35 340 357 27 55 89 95 109 110 106 111 113 124 120 125 121 118 118 117 117 120 117 111 102 111 137 149 164 156 160 147 143 157 160 183 197 202 222 259 293 303
0 339 4 23 340 43 24 71 106 112 107 109 112 114 120 125 125 127 120 118 118 117 116 109 100 98 93 92 88 91 108 118 138 150 143 149 172 180 190 178 111 62 54 39